Parkersburg, WV

4:45 AM EDT on March 29, 2017 (GMT -0400)
Wood County Wilson

Weather History for KPKB - September, 2013

Change the Weather History Date:

Thursday, September 19, 2013

  Actual Average Record
Temperature  
Mean Temperature 68 °F 65 °F  
Max Temperature 73 °F 76 °F 95 °F (1895)
Min Temperature 63 °F 54 °F 37 °F (1903)
Degree Days  
Heating Degree Days 0 3  
Month to date heating degree days 31 24  
Since 1 July heating degree days 36 29  
Cooling Degree Days 3 3  
Month to date cooling degree days 91 86  
Year to date cooling degree days 915 916  
Growing Degree Days 17 (Base 50)    
Moisture  
Dew Point 63 °F    
Average Humidity 87    
Maximum Humidity 100    
Minimum Humidity 73    
Precipitation  
Precipitation T in 0.09 in 1.08 in (2003)
Month to date precipitation 0.39 1.98  
Year to date precipitation 32.95 30.77  
Sea Level Pressure  
Sea Level Pressure 30.13 in    
Wind  
Wind Speed 2 mph (SSE)    
Max Wind Speed 9 mph    
Max Gust Speed 13 mph    
Visibility 5 miles    
Events      
T = Trace of Precipitation, MM = Missing Value Source: NWS Daily Summary

Daily Weather History Graph

Daily Weather History Graph

Search for Another Location

Airport or City:

Trip Planner

Search our weather history database for the weather conditions in past years. The results will help you decide how hot, cold, wet, or windy it might be!

Date:

Astronomy

Sep. 19, 2013 Rise Set
Actual Time 7:10 AM EDT 7:27 PM EDT
Civil Twilight 6:44 AM EDT 7:54 PM EDT
Nautical Twilight 6:12 AM EDT 8:25 PM EDT
Astronomical Twilight 5:40 AM EDT 8:57 PM EDT
Moon 7:25 PM EDT (9/19) 7:18 AM EDT (9/19)
Length of Visible Light 13h 10m
Length of Day
12h 16m
Full, 100% of the Moon is Illuminated
Sep 19
Full
Sep 26
Last Quarter
Oct 4
New
Oct 11
First Quarter
Oct 18
Full

Hourly Weather History & Observations

Time (EDT) Temp. Dew Point Humidity Pressure Visibility Wind Dir Wind Speed Gust Speed Precip Events Conditions
12:11 AM 64.4 °F 62.6 °F 94% 30.18 in 6.0 mi Calm Calm - N/A   Overcast
12:48 AM 64.4 °F 60.8 °F 88% 30.17 in 6.0 mi Calm Calm - N/A   Overcast
12:53 AM 64.0 °F 61.0 °F 90% 30.16 in 6.0 mi Calm Calm - N/A   Overcast
1:23 AM 64.4 °F 60.8 °F 88% 30.17 in 6.0 mi Calm Calm - N/A   Overcast
1:53 AM 64.0 °F 62.1 °F 93% 30.17 in 6.0 mi Calm Calm - N/A   Overcast
2:20 AM 62.6 °F 62.6 °F 100% 30.17 in 6.0 mi Calm Calm - N/A   Overcast
2:53 AM 63.0 °F 61.0 °F 93% 30.15 in 5.0 mi Calm Calm - N/A   Overcast
3:53 AM 63.0 °F 61.0 °F 93% 30.14 in 5.0 mi Calm Calm - N/A   Overcast
4:53 AM 63.0 °F 61.0 °F 93% 30.14 in 5.0 mi Calm Calm - N/A   Overcast
5:53 AM 63.0 °F 61.0 °F 93% 30.14 in 4.0 mi Calm Calm - N/A   Overcast
6:07 AM 62.6 °F 60.8 °F 94% 30.15 in 3.0 mi Calm Calm - N/A   Overcast
6:31 AM 62.6 °F 60.8 °F 94% 30.15 in 3.0 mi Calm Calm - N/A   Overcast
6:53 AM 63.0 °F 61.0 °F 93% 30.15 in 4.0 mi Calm Calm - N/A   Overcast
7:03 AM 62.6 °F 60.8 °F 94% 30.16 in 2.5 mi Calm Calm - N/A   Overcast
7:53 AM 63.0 °F 62.1 °F 97% 30.16 in 2.5 mi Calm Calm - N/A   Overcast
8:25 AM 64.4 °F 62.6 °F 94% 30.18 in 2.5 mi Calm Calm - N/A   Overcast
8:53 AM 64.0 °F 62.1 °F 93% 30.17 in 2.5 mi Calm Calm - N/A   Overcast
9:00 AM 64.4 °F 62.6 °F 94% 30.17 in 5.0 mi Calm Calm - N/A   Overcast
9:53 AM 66.0 °F 62.1 °F 87% 30.17 in 6.0 mi SSE 3.5 mph - N/A   Overcast
10:39 AM 66.2 °F 62.6 °F 88% 30.18 in 6.0 mi SE 3.5 mph - N/A   Haze
10:53 AM 66.9 °F 62.1 °F 84% 30.17 in 6.0 mi SE 3.5 mph - N/A   Haze
11:53 AM 69.1 °F 62.1 °F 78% 30.15 in 7.0 mi Calm Calm - N/A   Overcast
12:32 PM 69.8 °F 62.6 °F 78% 30.16 in 7.0 mi South 5.8 mph - N/A   Overcast
12:53 PM 72.0 °F 63.0 °F 73% 30.14 in 8.0 mi SSE 5.8 mph - N/A   Mostly Cloudy
1:53 PM 72.0 °F 64.0 °F 76% 30.12 in 7.0 mi SSW 8.1 mph - N/A   Overcast
2:53 PM 72.0 °F 64.0 °F 76% 30.10 in 7.0 mi South 8.1 mph - N/A   Overcast
3:53 PM 72.0 °F 64.0 °F 76% 30.09 in 7.0 mi South 5.8 mph - N/A   Overcast
4:53 PM 72.0 °F 64.9 °F 78% 30.08 in 6.0 mi SSW 4.6 mph - N/A   Haze
5:53 PM 71.1 °F 64.9 °F 81% 30.08 in 6.0 mi SSW 3.5 mph - N/A   Haze
6:53 PM 71.1 °F 66.0 °F 84% 30.08 in 6.0 mi Calm Calm - N/A   Haze
7:53 PM 70.0 °F 66.0 °F 87% 30.07 in 6.0 mi South 4.6 mph - N/A   Overcast
8:39 PM 69.8 °F 66.2 °F 88% 30.08 in 6.0 mi SSE 3.5 mph - N/A   Overcast
8:53 PM 69.1 °F 66.0 °F 90% 30.07 in 6.0 mi South 3.5 mph - N/A   Overcast
9:21 PM 68.0 °F 66.2 °F 94% 30.07 in 5.0 mi Calm Calm - N/A   Overcast
9:53 PM 68.0 °F 64.9 °F 90% 30.05 in 5.0 mi Calm Calm - N/A   Overcast
10:07 PM 68.0 °F 64.4 °F 88% 30.07 in 5.0 mi ESE 3.5 mph - N/A   Overcast
10:46 PM 66.2 °F 64.4 °F 94% 30.06 in 5.0 mi SSE 3.5 mph - N/A   Scattered Clouds
10:53 PM 66.9 °F 64.9 °F 93% 30.05 in 4.0 mi Calm Calm - N/A   Partly Cloudy
11:53 PM 66.9 °F 64.9 °F 93% 30.07 in 4.0 mi Calm Calm - N/A   Overcast